Time,TemperatureF,DewpointF,PressureIn,WindDirection,WindDirectionDegrees,WindSpeedMPH,WindSpeedGustMPH,Humidity,HourlyPrecipIn,Conditions,Clouds,dailyrainin,SoftwareType,DateUTC
2013-02-07 00:02:00,37.4,19.5,29.65,NNE,22,0.0,0.0,48,0.00,CLR,,0.00,WeatherDisplay:10.37,2013-02-07 07:02:00,
2013-02-07 00:07:00,37.4,19.5,29.65,North,0,0.0,0.0,48,0.00,CLR,,0.00,WeatherDisplay:10.37,2013-02-07 07:07:00,
2013-02-07 00:12:00,37.4,20.0,29.65,North,0,0.0,0.0,49,0.00,CLR,,0.00,WeatherDisplay:10.37,2013-02-07 07:12:00,
2013-02-07 00:17:00,37.4,20.0,29.65,NNE,22,0.0,0.0,49,0.00,CLR,,0.00,WeatherDisplay:10.37,2013-02-07 07:17:00,
2013-02-07 00:22:00,37.2,19.3,29.65,NNE,22,0.0,0.0,48,0.00,CLR,,0.00,WeatherDisplay:10.37,2013-02-07 07:22:00,
2013-02-07 00:27:00,37.0,19.6,29.65,ENE,68,0.0,0.0,49,0.00,CLR,,0.00,WeatherDisplay:10.37,2013-02-07 07:27:00,
2013-02-07 00:32:00,36.9,19.5,29.65,NE,45,0.2,0.2,49,0.00,CLR,,0.00,WeatherDisplay:10.37,2013-02-07 07:32:00,
2013-02-07 00:37:00,36.9,19.9,29.66,NNE,22,0.0,0.0,50,0.00,CLR,,0.00,WeatherDisplay:10.37,2013-02-07 07:37:00,
2013-02-07 00:42:00,36.7,19.8,29.66,North,0,0.0,0.0,50,0.00,CLR,,0.00,WeatherDisplay:10.37,2013-02-07 07:42:00,
2013-02-07 00:47:00,36.7,20.2,29.66,NNW,338,1.2,0.0,51,0.00,CLR,,0.00,WeatherDisplay:10.37,2013-02-07 07:47:00,
2013-02-07 00:52:00,36.7,20.2,29.66,North,0,0.0,0.0,51,0.00,CLR,,0.00,WeatherDisplay:10.37,2013-02-07 07:52:00,
2013-02-07 00:57:00,36.7,20.2,29.66,North,0,0.0,0.0,51,0.00,CLR,,0.00,WeatherDisplay:10.37,2013-02-07 07:57:00,
2013-02-07 01:02:00,36.7,20.2,29.66,North,0,0.2,0.2,51,0.00,CLR,,0.00,WeatherDisplay:10.37,2013-02-07 08:02:00,
2013-02-07 01:07:00,36.5,20.5,29.66,North,0,1.2,0.0,52,0.00,CLR,,0.00,WeatherDisplay:10.37,2013-02-07 08:07:00,
2013-02-07 01:12:00,36.7,20.7,29.66,NNW,338,1.2,1.2,52,0.00,CLR,,0.00,WeatherDisplay:10.37,2013-02-07 08:12:00,
2013-02-07 01:17:00,36.7,20.7,29.66,NNW,338,1.2,1.2,52,0.00,CLR,,0.00,WeatherDisplay:10.37,2013-02-07 08:17:00,
2013-02-07 01:22:00,36.7,20.7,29.66,NE,45,1.2,1.2,52,0.00,CLR,,0.00,WeatherDisplay:10.37,2013-02-07 08:22:00,
2013-02-07 01:27:00,36.9,21.3,29.67,NNW,338,0.5,0.5,53,0.00,CLR,,0.00,WeatherDisplay:10.37,2013-02-07 08:27:00,
2013-02-07 01:32:00,37.0,21.5,29.67,NNW,338,1.2,1.2,53,0.00,CLR,,0.00,WeatherDisplay:10.37,2013-02-07 08:32:00,
2013-02-07 01:37:00,37.0,21.5,29.67,NNW,338,1.2,1.2,53,0.00,CLR,,0.00,WeatherDisplay:10.37,2013-02-07 08:37:00,
2013-02-07 01:42:00,37.0,21.5,29.67,NNW,338,0.0,0.5,53,0.00,CLR,,0.00,WeatherDisplay:10.37,2013-02-07 08:42:00,
2013-02-07 01:47:00,37.2,21.6,29.67,NNW,338,0.0,0.0,53,0.00,CLR,,0.00,WeatherDisplay:10.37,2013-02-07 08:47:00,
2013-02-07 01:52:00,37.2,22.1,29.67,NW,315,1.2,1.2,54,0.00,CLR,,0.00,WeatherDisplay:10.37,2013-02-07 08:52:00,
2013-02-07 01:57:00,37.2,22.1,29.67,North,0,1.2,1.2,54,0.00,CLR,,0.00,WeatherDisplay:10.37,2013-02-07 08:57:00,
2013-02-07 02:02:00,37.2,22.1,29.67,NNW,338,2.3,2.3,54,0.00,CLR,,0.00,WeatherDisplay:10.37,2013-02-07 09:02:00,
2013-02-07 02:07:00,37.4,22.3,29.67,NNW,338,1.2,1.2,54,0.00,CLR,,0.00,WeatherDisplay:10.37,2013-02-07 09:07:00,
2013-02-07 02:12:00,37.4,22.3,29.67,North,0,0.0,0.0,54,0.00,CLR,,0.00,WeatherDisplay:10.37,2013-02-07 09:12:00,
2013-02-07 02:17:00,37.2,21.6,29.67,NNW,338,0.5,0.5,53,0.00,CLR,,0.00,WeatherDisplay:10.37,2013-02-07 09:17:00,
2013-02-07 02:22:00,37.0,21.9,29.68,North,0,0.0,0.0,54,0.00,CLR,,0.00,WeatherDisplay:10.37,2013-02-07 09:22:00,
2013-02-07 02:27:00,36.7,21.1,29.68,NNW,338,0.0,0.0,53,0.00,CLR,,0.00,WeatherDisplay:10.37,2013-02-07 09:27:00,
2013-02-07 02:32:00,36.3,20.8,29.68,ENE,68,0.0,0.0,53,0.00,CLR,,0.00,WeatherDisplay:10.37,2013-02-07 09:32:00,
2013-02-07 02:37:00,36.0,20.9,29.68,ENE,68,0.0,0.0,54,0.00,CLR,,0.00,WeatherDisplay:10.37,2013-02-07 09:37:00,
2013-02-07 02:42:00,35.6,20.6,29.68,ENE,68,0.0,0.0,54,0.00,CLR,,0.00,WeatherDisplay:10.37,2013-02-07 09:42:00,
2013-02-07 02:47:00,35.2,20.2,29.68,NNE,22,0.0,0.0,54,0.00,CLR,,0.00,WeatherDisplay:10.37,2013-02-07 09:47:00,
2013-02-07 02:52:00,35.1,20.5,29.68,NNE,22,0.0,0.0,55,0.00,CLR,,0.00,WeatherDisplay:10.37,2013-02-07 09:52:00,
2013-02-07 02:57:00,34.9,20.3,29.68,NNE,22,0.0,0.0,55,0.00,CLR,,0.00,WeatherDisplay:10.37,2013-02-07 09:57:00,
2013-02-07 03:02:00,34.5,20.4,29.68,North,0,0.0,0.0,56,0.00,CLR,,0.00,WeatherDisplay:10.37,2013-02-07 10:02:00,
2013-02-07 03:07:00,34.3,20.3,29.68,North,0,0.0,0.0,56,0.00,CLR,,0.00,WeatherDisplay:10.37,2013-02-07 10:07:00,
2013-02-07 03:12:00,34.2,20.1,29.68,NNE,22,0.0,0.0,56,0.00,CLR,,0.00,WeatherDisplay:10.37,2013-02-07 10:12:00,
2013-02-07 03:17:00,34.0,19.9,29.68,ENE,68,0.0,0.5,56,0.00,CLR,,0.00,WeatherDisplay:10.37,2013-02-07 10:17:00,
2013-02-07 03:22:00,33.8,19.7,29.68,ENE,68,0.0,0.0,56,0.00,CLR,,0.00,WeatherDisplay:10.37,2013-02-07 10:22:00,
2013-02-07 03:27:00,33.6,19.6,29.68,ENE,68,0.0,0.0,56,0.00,CLR,,0.00,WeatherDisplay:10.37,2013-02-07 10:27:00,
2013-02-07 03:32:00,33.4,19.4,29.68,ENE,68,0.0,0.0,56,0.00,CLR,,0.00,WeatherDisplay:10.37,2013-02-07 10:32:00,
2013-02-07 03:37:00,33.3,19.2,29.68,ENE,68,0.0,0.0,56,0.00,CLR,,0.00,WeatherDisplay:10.37,2013-02-07 10:37:00,
2013-02-07 03:42:00,33.1,19.1,29.68,ENE,68,0.0,0.5,56,0.00,CLR,,0.00,WeatherDisplay:10.37,2013-02-07 10:42:00,
2013-02-07 03:47:00,33.1,19.5,29.68,NE,45,0.0,0.0,57,0.00,CLR,,0.00,WeatherDisplay:10.37,2013-02-07 10:47:00,
2013-02-07 03:52:00,33.1,19.5,29.69,NE,45,0.0,0.0,57,0.00,CLR,,0.00,WeatherDisplay:10.37,2013-02-07 10:52:00,
2013-02-07 03:57:00,32.9,19.3,29.69,NE,45,0.0,0.0,57,0.00,CLR,,0.00,WeatherDisplay:10.37,2013-02-07 10:57:00,
2013-02-07 04:02:00,32.7,19.6,29.69,NE,45,0.0,0.0,58,0.00,CLR,,0.00,WeatherDisplay:10.37,2013-02-07 11:02:00,
2013-02-07 04:07:00,32.7,19.6,29.69,ENE,68,0.0,0.0,58,0.00,CLR,,0.00,WeatherDisplay:10.37,2013-02-07 11:07:00,
2013-02-07 04:12:00,32.7,20.0,29.69,North,0,0.0,0.0,59,0.00,CLR,,0.00,WeatherDisplay:10.37,2013-02-07 11:12:00,
2013-02-07 04:17:00,32.7,20.0,29.69,North,0,0.2,0.2,59,0.00,CLR,,0.00,WeatherDisplay:10.37,2013-02-07 11:17:00,
2013-02-07 04:22:00,33.1,21.1,29.69,East,90,1.2,1.2,61,0.00,CLR,,0.00,WeatherDisplay:10.37,2013-02-07 11:22:00,
2013-02-07 04:27:00,33.3,21.3,29.69,North,0,1.2,1.2,61,0.00,CLR,,0.00,WeatherDisplay:10.37,2013-02-07 11:27:00,
2013-02-07 04:32:00,33.4,21.0,29.69,NNE,22,1.2,1.2,60,0.00,CLR,,0.00,WeatherDisplay:10.37,2013-02-07 11:32:00,
2013-02-07 04:37:00,33.6,21.6,29.69,North,0,0.2,0.2,61,0.00,CLR,,0.00,WeatherDisplay:10.37,2013-02-07 11:37:00,
2013-02-07 04:42:00,34.0,22.3,29.70,North,0,1.2,1.2,62,0.00,CLR,,0.00,WeatherDisplay:10.37,2013-02-07 11:42:00,
2013-02-07 04:47:00,34.3,22.7,29.70,North,0,1.2,1.2,62,0.00,CLR,,0.00,WeatherDisplay:10.37,2013-02-07 11:47:00,
2013-02-07 04:52:00,34.7,22.6,29.70,ENE,68,0.0,0.5,61,0.00,CLR,,0.00,WeatherDisplay:10.37,2013-02-07 11:52:00,
2013-02-07 04:57:00,34.9,23.2,29.70,NNW,338,1.2,1.2,62,0.00,CLR,,0.00,WeatherDisplay:10.37,2013-02-07 11:57:00,
2013-02-07 05:02:00,35.2,23.5,29.70,NNW,338,2.3,2.3,62,0.00,CLR,,0.00,WeatherDisplay:10.37,2013-02-07 12:02:00,
2013-02-07 05:07:00,35.4,23.7,29.70,NNW,338,1.2,1.2,62,0.00,CLR,,0.00,WeatherDisplay:10.37,2013-02-07 12:07:00,
2013-02-07 05:12:00,35.6,23.5,29.70,NE,45,0.2,0.2,61,0.00,CLR,,0.00,WeatherDisplay:10.37,2013-02-07 12:12:00,
2013-02-07 05:17:00,35.6,23.1,29.71,North,0,1.2,1.2,60,0.00,CLR,,0.00,WeatherDisplay:10.37,2013-02-07 12:17:00,
2013-02-07 05:22:00,35.4,22.9,29.71,NE,45,1.2,1.2,60,0.00,CLR,,0.00,WeatherDisplay:10.37,2013-02-07 12:22:00,
2013-02-07 05:27:00,35.1,22.6,29.71,NNE,22,0.5,0.5,60,0.00,CLR,,0.00,WeatherDisplay:10.37,2013-02-07 12:27:00,
2013-02-07 05:32:00,34.9,22.0,29.71,North,0,0.0,0.0,59,0.00,CLR,,0.00,WeatherDisplay:10.37,2013-02-07 12:32:00,
2013-02-07 05:37:00,34.5,22.1,29.71,North,0,0.0,0.2,60,0.00,CLR,,0.00,WeatherDisplay:10.37,2013-02-07 12:37:00,
2013-02-07 05:42:00,34.2,21.7,29.71,NNW,338,0.0,0.0,60,0.00,CLR,,0.00,WeatherDisplay:10.37,2013-02-07 12:42:00,
2013-02-07 05:47:00,33.8,21.4,29.71,NNE,22,1.2,0.0,60,0.00,CLR,,0.00,WeatherDisplay:10.37,2013-02-07 12:47:00,
2013-02-07 05:52:00,33.4,21.0,29.71,NNE,22,0.0,0.0,60,0.00,CLR,,0.00,WeatherDisplay:10.37,2013-02-07 12:52:00,
2013-02-07 05:57:00,33.4,21.8,29.71,North,0,0.0,0.0,62,0.00,CLR,,0.00,WeatherDisplay:10.37,2013-02-07 12:57:00,
2013-02-07 06:02:00,33.4,21.8,29.71,NNW,338,1.2,0.0,62,0.00,CLR,,0.00,WeatherDisplay:10.37,2013-02-07 13:02:00,
2013-02-07 06:07:00,33.3,21.6,29.71,North,0,0.2,0.2,62,0.00,CLR,,0.00,WeatherDisplay:10.37,2013-02-07 13:07:00,
2013-02-07 06:12:00,33.1,21.5,29.71,North,0,0.2,0.2,62,0.00,CLR,,0.00,WeatherDisplay:10.37,2013-02-07 13:12:00,
2013-02-07 06:17:00,33.1,21.5,29.71,NNW,338,0.5,0.5,62,0.00,CLR,,0.00,WeatherDisplay:10.37,2013-02-07 13:17:00,
2013-02-07 06:22:00,33.1,21.5,29.72,North,0,1.2,1.2,62,0.00,CLR,,0.00,WeatherDisplay:10.37,2013-02-07 13:22:00,
2013-02-07 06:27:00,33.3,22.0,29.72,North,0,0.0,0.5,63,0.00,CLR,,0.00,WeatherDisplay:10.37,2013-02-07 13:27:00,
2013-02-07 06:32:00,33.3,21.6,29.72,North,0,1.2,1.2,62,0.00,CLR,,0.00,WeatherDisplay:10.37,2013-02-07 13:32:00,
2013-02-07 06:37:00,33.1,21.5,29.73,NNE,22,0.5,0.5,62,0.00,CLR,,0.00,WeatherDisplay:10.37,2013-02-07 13:37:00,
2013-02-07 06:42:00,32.9,21.3,29.73,NNE,22,0.5,0.5,62,0.00,CLR,,0.00,WeatherDisplay:10.37,2013-02-07 13:42:00,
2013-02-07 06:47:00,32.7,21.1,29.73,NE,45,0.5,0.5,62,0.00,CLR,,0.00,WeatherDisplay:10.37,2013-02-07 13:47:00,
2013-02-07 06:52:00,32.7,21.5,29.73,North,0,1.2,1.2,63,0.00,CLR,,0.00,WeatherDisplay:10.37,2013-02-07 13:52:00,
2013-02-07 06:57:00,32.5,21.3,29.73,North,0,0.0,0.0,63,0.00,CLR,,0.00,WeatherDisplay:10.37,2013-02-07 13:57:00,
2013-02-07 07:02:00,32.5,21.7,29.74,North,0,0.0,0.0,64,0.00,CLR,,0.00,WeatherDisplay:10.37,2013-02-07 14:02:00,
2013-02-07 07:07:00,32.5,21.7,29.74,North,0,0.0,0.0,64,0.00,CLR,,0.00,WeatherDisplay:10.37,2013-02-07 14:07:00,
2013-02-07 07:12:00,32.5,21.3,29.74,NNW,338,0.0,0.0,63,0.00,CLR,,0.00,WeatherDisplay:10.37,2013-02-07 14:12:00,
2013-02-07 07:17:00,32.4,21.2,29.74,ENE,68,0.0,0.0,63,0.00,CLR,,0.00,WeatherDisplay:10.37,2013-02-07 14:17:00,
2013-02-07 07:22:00,32.2,21.0,29.74,ENE,68,0.0,0.0,63,0.00,CLR,,0.00,WeatherDisplay:10.37,2013-02-07 14:22:00,
2013-02-07 07:27:00,32.0,20.8,29.74,ENE,68,0.0,0.0,63,0.00,CLR,,0.00,WeatherDisplay:10.37,2013-02-07 14:27:00,
2013-02-07 07:32:00,31.8,20.6,29.75,ENE,68,0.0,0.0,63,0.00,CLR,,0.00,WeatherDisplay:10.37,2013-02-07 14:32:00,
2013-02-07 07:37:00,31.6,20.8,29.75,ENE,68,0.0,0.0,64,0.00,CLR,,0.00,WeatherDisplay:10.37,2013-02-07 14:37:00,
2013-02-07 07:42:00,31.5,20.7,29.75,East,90,0.2,0.2,64,0.00,CLR,,0.00,WeatherDisplay:10.37,2013-02-07 14:42:00,
2013-02-07 07:47:00,31.6,21.2,29.75,ENE,68,0.0,0.0,65,0.00,CLR,,0.00,WeatherDisplay:10.37,2013-02-07 14:47:00,
2013-02-07 07:52:00,31.8,21.4,29.76,NE,45,0.0,0.0,65,0.00,CLR,,0.00,WeatherDisplay:10.37,2013-02-07 14:52:00,
2013-02-07 07:57:00,32.0,21.6,29.76,ESE,112,0.0,0.0,65,0.00,CLR,,0.00,WeatherDisplay:10.37,2013-02-07 14:57:00,
2013-02-07 08:02:00,32.4,22.3,29.76,East,90,0.0,0.2,66,0.00,CLR,,0.00,WeatherDisplay:10.37,2013-02-07 15:02:00,
2013-02-07 08:07:00,32.9,22.8,29.76,East,90,0.0,0.0,66,0.00,CLR,,0.00,WeatherDisplay:10.37,2013-02-07 15:07:00,
2013-02-07 08:12:00,33.3,23.1,29.76,East,90,0.0,0.0,66,0.00,CLR,,0.00,WeatherDisplay:10.37,2013-02-07 15:12:00,
2013-02-07 08:17:00,33.6,23.5,29.77,East,90,0.0,0.0,66,0.00,CLR,,0.00,WeatherDisplay:10.37,2013-02-07 15:17:00,
2013-02-07 08:22:00,34.2,23.6,29.77,South,180,1.4,1.4,65,0.00,CLR,,0.00,WeatherDisplay:10.37,2013-02-07 15:22:00,
2013-02-07 08:27:00,34.7,24.1,29.77,South,180,0.0,0.0,65,0.00,CLR,,0.00,WeatherDisplay:10.37,2013-02-07 15:27:00,
2013-02-07 08:32:00,35.2,24.3,29.77,SSW,202,0.0,0.0,64,0.00,CLR,,0.00,WeatherDisplay:10.37,2013-02-07 15:32:00,
2013-02-07 08:37:00,35.8,24.4,29.77,SW,225,1.6,1.6,63,0.00,CLR,,0.00,WeatherDisplay:10.37,2013-02-07 15:37:00,
2013-02-07 08:42:00,36.3,24.9,29.78,WSW,248,1.4,1.4,63,0.00,CLR,,0.00,WeatherDisplay:10.37,2013-02-07 15:42:00,
2013-02-07 08:47:00,37.2,25.4,29.78,WSW,248,1.2,1.2,62,0.00,CLR,,0.00,WeatherDisplay:10.37,2013-02-07 15:47:00,
2013-02-07 08:52:00,37.8,26.3,29.78,NNW,338,1.2,1.2,63,0.00,CLR,,0.00,WeatherDisplay:10.37,2013-02-07 15:52:00,
2013-02-07 08:57:00,38.5,26.2,29.78,North,0,1.2,1.2,61,0.00,CLR,,0.00,WeatherDisplay:10.37,2013-02-07 15:57:00,
2013-02-07 09:02:00,39.0,26.3,29.78,WNW,292,1.6,1.6,60,0.00,CLR,,0.00,WeatherDisplay:10.37,2013-02-07 16:02:00,
2013-02-07 09:07:00,39.6,26.4,29.78,NW,315,0.0,0.0,59,0.00,CLR,,0.00,WeatherDisplay:10.37,2013-02-07 16:07:00,
2013-02-07 09:12:00,39.9,26.3,29.78,ESE,112,0.9,0.9,58,0.00,CLR,,0.00,WeatherDisplay:10.37,2013-02-07 16:12:00,
2013-02-07 09:17:00,40.5,26.8,29.78,West,270,0.0,0.5,58,0.00,CLR,,0.00,WeatherDisplay:10.37,2013-02-07 16:17:00,
2013-02-07 09:22:00,40.6,26.6,29.78,WSW,248,1.2,1.2,57,0.00,CLR,,0.00,WeatherDisplay:10.37,2013-02-07 16:22:00,
2013-02-07 09:27:00,41.2,26.7,29.78,NW,315,1.8,1.8,56,0.00,CLR,,0.00,WeatherDisplay:10.37,2013-02-07 16:27:00,
2013-02-07 09:32:00,41.5,26.6,29.78,WNW,292,3.5,3.5,55,0.00,CLR,,0.00,WeatherDisplay:10.37,2013-02-07 16:32:00,
2013-02-07 09:37:00,42.1,26.2,29.78,NW,315,2.3,2.3,53,0.00,CLR,,0.00,WeatherDisplay:10.37,2013-02-07 16:37:00,
2013-02-07 09:42:00,42.3,26.3,29.78,NE,45,1.4,1.4,53,0.00,CLR,,0.00,WeatherDisplay:10.37,2013-02-07 16:42:00,
2013-02-07 09:47:00,42.4,26.5,29.78,WNW,292,2.3,2.3,53,0.00,CLR,,0.00,WeatherDisplay:10.37,2013-02-07 16:47:00,
2013-02-07 09:52:00,42.6,26.7,29.78,NNE,22,2.3,2.3,53,0.00,CLR,,0.00,WeatherDisplay:10.37,2013-02-07 16:52:00,
2013-02-07 09:57:00,42.8,26.8,29.78,NW,315,2.3,2.3,53,0.00,CLR,,0.00,WeatherDisplay:10.37,2013-02-07 16:57:00,
2013-02-07 10:02:00,43.0,26.5,29.78,NNE,22,1.2,1.2,52,0.00,CLR,,0.00,WeatherDisplay:10.37,2013-02-07 17:02:00,
2013-02-07 10:07:00,43.2,26.7,29.78,NW,315,1.2,1.2,52,0.00,CLR,,0.00,WeatherDisplay:10.37,2013-02-07 17:07:00,
2013-02-07 10:12:00,43.5,27.0,29.78,WNW,292,2.3,2.3,52,0.00,CLR,,0.00,WeatherDisplay:10.37,2013-02-07 17:12:00,
2013-02-07 10:17:00,43.7,26.7,29.78,WSW,248,1.2,1.2,51,0.00,CLR,,0.00,WeatherDisplay:10.37,2013-02-07 17:17:00,
2013-02-07 10:22:00,43.9,26.4,29.78,West,270,2.6,2.6,50,0.00,CLR,,0.00,WeatherDisplay:10.37,2013-02-07 17:22:00,
2013-02-07 10:27:00,44.1,26.6,29.79,WSW,248,1.2,1.2,50,0.00,CLR,,0.00,WeatherDisplay:10.37,2013-02-07 17:27:00,
2013-02-07 10:32:00,44.2,26.8,29.78,NNE,22,2.3,2.3,50,0.00,CLR,,0.00,WeatherDisplay:10.37,2013-02-07 17:32:00,
2013-02-07 10:37:00,44.6,27.1,29.78,NW,315,1.2,1.2,50,0.00,CLR,,0.00,WeatherDisplay:10.37,2013-02-07 17:37:00,
2013-02-07 10:42:00,45.0,26.9,29.78,NNW,338,2.3,2.3,49,0.00,CLR,,0.00,WeatherDisplay:10.37,2013-02-07 17:42:00,
2013-02-07 10:47:00,45.1,27.1,29.78,NNW,338,2.3,2.3,49,0.00,CLR,,0.00,WeatherDisplay:10.37,2013-02-07 17:47:00,
2013-02-07 10:52:00,45.7,27.1,29.79,SW,225,2.3,2.3,48,0.00,CLR,,0.00,WeatherDisplay:10.37,2013-02-07 17:52:00,
2013-02-07 10:57:00,46.2,27.1,29.79,SW,225,1.2,1.2,47,0.00,CLR,,0.00,WeatherDisplay:10.37,2013-02-07 17:57:00,
2013-02-07 11:02:00,46.4,26.7,29.79,West,270,2.4,2.4,46,0.00,CLR,,0.00,WeatherDisplay:10.37,2013-02-07 18:02:00,
2013-02-07 11:07:00,46.6,26.9,29.79,WNW,292,2.3,2.3,46,0.00,CLR,,0.00,WeatherDisplay:10.37,2013-02-07 18:07:00,
2013-02-07 11:12:00,47.1,26.8,29.79,NNW,338,4.6,4.6,45,0.00,CLR,,0.00,WeatherDisplay:10.37,2013-02-07 18:12:00,
2013-02-07 11:17:00,47.1,26.8,29.78,WNW,292,1.4,1.4,45,0.00,CLR,,0.00,WeatherDisplay:10.37,2013-02-07 18:17:00,
2013-02-07 11:22:00,47.7,26.8,29.78,NW,315,2.3,2.3,44,0.00,CLR,,0.00,WeatherDisplay:10.37,2013-02-07 18:22:00,
2013-02-07 11:27:00,47.8,27.0,29.78,SE,135,1.2,1.6,44,0.00,CLR,,0.00,WeatherDisplay:10.37,2013-02-07 18:27:00,
2013-02-07 11:32:00,48.2,26.7,29.78,WSW,248,1.8,1.8,43,0.00,CLR,,0.00,WeatherDisplay:10.37,2013-02-07 18:32:00,
2013-02-07 11:37:00,48.4,26.3,29.78,North,0,2.3,2.3,42,0.00,CLR,,0.00,WeatherDisplay:10.37,2013-02-07 18:37:00,
2013-02-07 11:42:00,48.9,27.4,29.78,West,270,2.3,2.3,43,0.00,CLR,,0.00,WeatherDisplay:10.37,2013-02-07 18:42:00,
2013-02-07 11:47:00,49.5,27.3,29.78,SSE,158,1.8,1.8,42,0.00,CLR,,0.00,WeatherDisplay:10.37,2013-02-07 18:47:00,
2013-02-07 11:52:00,50.0,27.8,29.78,SSW,202,2.3,2.3,42,0.00,CLR,,0.00,WeatherDisplay:10.37,2013-02-07 18:52:00,
2013-02-07 11:57:00,50.0,27.8,29.77,SSW,202,2.3,2.3,42,0.00,CLR,,0.00,WeatherDisplay:10.37,2013-02-07 18:57:00,
2013-02-07 12:02:00,50.5,28.3,29.77,WSW,248,3.5,3.5,42,0.00,CLR,,0.00,WeatherDisplay:10.37,2013-02-07 19:02:00,
2013-02-07 12:07:00,50.7,27.2,29.77,SW,225,2.3,2.3,40,0.00,CLR,,0.00,WeatherDisplay:10.37,2013-02-07 19:07:00,
2013-02-07 12:12:00,50.7,27.2,29.77,NNW,338,3.5,3.5,40,0.00,CLR,,0.00,WeatherDisplay:10.37,2013-02-07 19:12:00,
2013-02-07 12:17:00,51.1,28.2,29.76,West,270,1.4,1.4,41,0.00,CLR,,0.00,WeatherDisplay:10.37,2013-02-07 19:17:00,
2013-02-07 12:22:00,51.4,26.6,29.76,SW,225,3.8,3.8,38,0.00,CLR,,0.00,WeatherDisplay:10.37,2013-02-07 19:22:00,
2013-02-07 12:27:00,51.4,26.6,29.76,SE,135,3.5,3.5,38,0.00,CLR,,0.00,WeatherDisplay:10.37,2013-02-07 19:27:00,
2013-02-07 12:32:00,51.4,26.6,29.76,WNW,292,2.4,2.4,38,0.00,CLR,,0.00,WeatherDisplay:10.37,2013-02-07 19:32:00,
2013-02-07 12:37:00,51.8,26.3,29.76,WNW,292,2.3,2.3,37,0.00,CLR,,0.00,WeatherDisplay:10.37,2013-02-07 19:37:00,
2013-02-07 12:42:00,51.8,26.3,29.75,SSW,202,2.3,2.3,37,0.00,CLR,,0.00,WeatherDisplay:10.37,2013-02-07 19:42:00,
2013-02-07 12:47:00,52.3,27.5,29.75,SSE,158,2.3,2.3,38,0.00,CLR,,0.00,WeatherDisplay:10.37,2013-02-07 19:47:00,
2013-02-07 12:52:00,53.2,28.3,29.75,SE,135,2.3,2.3,38,0.00,CLR,,0.00,WeatherDisplay:10.37,2013-02-07 19:52:00,
2013-02-07 12:57:00,54.0,27.6,29.75,ENE,68,2.3,2.3,36,0.00,CLR,,0.00,WeatherDisplay:10.37,2013-02-07 19:57:00,
2013-02-07 13:02:00,54.1,27.7,29.75,West,270,1.2,1.2,36,0.00,CLR,,0.00,WeatherDisplay:10.37,2013-02-07 20:02:00,
2013-02-07 13:07:00,54.1,27.1,29.74,NNW,338,3.5,3.5,35,0.00,CLR,,0.00,WeatherDisplay:10.37,2013-02-07 20:07:00,
2013-02-07 13:12:00,53.8,27.4,29.74,SW,225,1.2,4.3,36,0.00,CLR,,0.00,WeatherDisplay:10.37,2013-02-07 20:12:00,
2013-02-07 13:17:00,54.0,26.2,29.74,SW,225,2.9,2.9,34,0.00,CLR,,0.00,WeatherDisplay:10.37,2013-02-07 20:17:00,
2013-02-07 13:22:00,53.8,26.0,29.74,NW,315,2.4,2.4,34,0.00,CLR,,0.00,WeatherDisplay:10.37,2013-02-07 20:22:00,
2013-02-07 13:27:00,53.8,26.0,29.74,SW,225,4.6,4.6,34,0.00,CLR,,0.00,WeatherDisplay:10.37,2013-02-07 20:27:00,
2013-02-07 13:32:00,54.0,26.2,29.74,SW,225,1.2,2.0,34,0.00,CLR,,0.00,WeatherDisplay:10.37,2013-02-07 20:32:00,
2013-02-07 13:37:00,54.5,26.0,29.74,WNW,292,3.5,3.5,33,0.00,CLR,,0.00,WeatherDisplay:10.37,2013-02-07 20:37:00,
2013-02-07 13:42:00,54.7,26.1,29.74,SSW,202,2.9,2.9,33,0.00,CLR,,0.00,WeatherDisplay:10.37,2013-02-07 20:42:00,
2013-02-07 13:47:00,54.7,25.4,29.74,WNW,292,3.6,3.6,32,0.00,CLR,,0.00,WeatherDisplay:10.37,2013-02-07 20:47:00,
2013-02-07 13:52:00,54.0,24.0,29.73,ENE,68,1.2,1.2,31,0.00,CLR,,0.00,WeatherDisplay:10.37,2013-02-07 20:52:00,
2013-02-07 13:57:00,53.8,24.6,29.73,NNW,338,2.3,2.3,32,0.00,CLR,,0.00,WeatherDisplay:10.37,2013-02-07 20:57:00,
2013-02-07 14:02:00,53.8,25.3,29.73,NW,315,1.2,2.2,33,0.00,CLR,,0.00,WeatherDisplay:10.37,2013-02-07 21:02:00,
2013-02-07 14:07:00,53.8,24.6,29.73,WSW,248,4.0,4.0,32,0.00,CLR,,0.00,WeatherDisplay:10.37,2013-02-07 21:07:00,
2013-02-07 14:12:00,53.8,24.6,29.73,ENE,68,2.4,2.4,32,0.00,CLR,,0.00,WeatherDisplay:10.37,2013-02-07 21:12:00,
2013-02-07 14:17:00,53.8,25.3,29.73,NW,315,1.2,1.2,33,0.00,CLR,,0.00,WeatherDisplay:10.37,2013-02-07 21:17:00,
2013-02-07 14:22:00,53.8,24.6,29.72,NE,45,4.6,4.6,32,0.00,CLR,,0.00,WeatherDisplay:10.37,2013-02-07 21:22:00,
2013-02-07 14:27:00,54.0,24.7,29.72,SSE,158,3.5,3.5,32,0.00,CLR,,0.00,WeatherDisplay:10.37,2013-02-07 21:27:00,
2013-02-07 14:32:00,54.5,24.4,29.72,South,180,2.4,2.4,31,0.00,CLR,,0.00,WeatherDisplay:10.37,2013-02-07 21:32:00,
2013-02-07 14:37:00,54.7,23.8,29.72,NW,315,3.3,3.3,30,0.00,CLR,,0.00,WeatherDisplay:10.37,2013-02-07 21:37:00,
2013-02-07 14:42:00,54.7,23.8,29.72,WNW,292,2.3,2.3,30,0.00,CLR,,0.00,WeatherDisplay:10.37,2013-02-07 21:42:00,
2013-02-07 14:47:00,54.5,23.7,29.72,West,270,2.3,2.4,30,0.00,CLR,,0.00,WeatherDisplay:10.37,2013-02-07 21:47:00,
2013-02-07 14:52:00,54.7,23.8,29.72,WSW,248,5.2,5.2,30,0.00,CLR,,0.00,WeatherDisplay:10.37,2013-02-07 21:52:00,
2013-02-07 14:57:00,55.0,23.3,29.72,WSW,248,2.3,2.3,29,0.00,CLR,,0.00,WeatherDisplay:10.37,2013-02-07 21:57:00,
2013-02-07 15:02:00,55.2,24.3,29.72,South,180,2.4,2.4,30,0.00,CLR,,0.00,WeatherDisplay:10.37,2013-02-07 22:02:00,
2013-02-07 15:07:00,55.6,24.6,29.72,West,270,1.2,1.2,30,0.00,CLR,,0.00,WeatherDisplay:10.37,2013-02-07 22:07:00,
2013-02-07 15:12:00,56.1,25.1,29.72,South,180,1.2,1.2,30,0.00,CLR,,0.00,WeatherDisplay:10.37,2013-02-07 22:12:00,
2013-02-07 15:17:00,56.7,23.9,29.72,SSW,202,2.3,2.3,28,0.00,CLR,,0.00,WeatherDisplay:10.37,2013-02-07 22:17:00,
2013-02-07 15:22:00,56.7,21.2,29.72,WNW,292,2.6,2.6,25,0.00,CLR,,0.00,WeatherDisplay:10.37,2013-02-07 22:22:00,
2013-02-07 15:27:00,56.3,22.7,29.72,SW,225,3.5,3.5,27,0.00,CLR,,0.00,WeatherDisplay:10.37,2013-02-07 22:27:00,
2013-02-07 15:32:00,56.5,22.9,29.71,East,90,1.2,1.2,27,0.00,CLR,,0.00,WeatherDisplay:10.37,2013-02-07 22:32:00,
2013-02-07 15:37:00,56.5,21.0,29.72,SW,225,2.3,2.3,25,0.00,CLR,,0.00,WeatherDisplay:10.37,2013-02-07 22:37:00,
2013-02-07 15:42:00,56.5,21.0,29.72,SSE,158,2.9,2.9,25,0.00,CLR,,0.00,WeatherDisplay:10.37,2013-02-07 22:42:00,
2013-02-07 15:47:00,56.7,20.2,29.71,NNW,338,2.3,2.3,24,0.00,CLR,,0.00,WeatherDisplay:10.37,2013-02-07 22:47:00,
2013-02-07 15:52:00,56.8,20.4,29.72,SE,135,2.3,2.3,24,0.00,CLR,,0.00,WeatherDisplay:10.37,2013-02-07 22:52:00,
2013-02-07 15:57:00,57.2,20.7,29.71,NW,315,1.2,1.2,24,0.00,CLR,,0.00,WeatherDisplay:10.37,2013-02-07 22:57:00,
2013-02-07 16:02:00,57.2,20.7,29.72,WSW,248,1.2,0.0,24,0.00,CLR,,0.00,WeatherDisplay:10.37,2013-02-07 23:02:00,
2013-02-07 16:07:00,57.0,20.5,29.72,WNW,292,0.0,2.2,24,0.00,CLR,,0.00,WeatherDisplay:10.37,2013-02-07 23:07:00,
2013-02-07 16:12:00,56.5,19.1,29.72,NW,315,2.3,2.3,23,0.00,CLR,,0.00,WeatherDisplay:10.37,2013-02-07 23:12:00,
2013-02-07 16:17:00,56.3,19.9,29.72,SW,225,3.5,3.5,24,0.00,CLR,,0.00,WeatherDisplay:10.37,2013-02-07 23:17:00,
2013-02-07 16:22:00,56.3,19.9,29.72,NW,315,2.3,2.3,24,0.00,CLR,,0.00,WeatherDisplay:10.37,2013-02-07 23:22:00,
2013-02-07 16:27:00,56.1,20.7,29.72,WNW,292,1.2,1.2,25,0.00,CLR,,0.00,WeatherDisplay:10.37,2013-02-07 23:27:00,
2013-02-07 16:32:00,55.9,18.6,29.72,NW,315,2.3,2.3,23,0.00,CLR,,0.00,WeatherDisplay:10.37,2013-02-07 23:32:00,
2013-02-07 16:37:00,55.6,18.3,29.72,NW,315,1.2,1.2,23,0.00,CLR,,0.00,WeatherDisplay:10.37,2013-02-07 23:37:00,
2013-02-07 16:42:00,55.2,19.0,29.72,WSW,248,2.3,2.3,24,0.00,CLR,,0.00,WeatherDisplay:10.37,2013-02-07 23:42:00,
2013-02-07 16:47:00,55.0,18.9,29.72,NW,315,1.2,1.2,24,0.00,CLR,,0.00,WeatherDisplay:10.37,2013-02-07 23:47:00,
2013-02-07 16:52:00,54.9,18.7,29.72,SW,225,1.2,2.6,24,0.00,CLR,,0.00,WeatherDisplay:10.37,2013-02-07 23:52:00,
2013-02-07 16:57:00,54.9,18.7,29.72,WSW,248,4.6,4.6,24,0.00,CLR,,0.00,WeatherDisplay:10.37,2013-02-07 23:57:00,
2013-02-07 17:02:00,54.7,18.5,29.72,SSW,202,2.3,2.3,24,0.00,CLR,,0.00,WeatherDisplay:10.37,2013-02-08 00:02:00,
2013-02-07 17:07:00,54.3,18.2,29.72,WSW,248,1.2,1.2,24,0.00,CLR,,0.00,WeatherDisplay:10.37,2013-02-08 00:07:00,
2013-02-07 17:12:00,54.3,19.2,29.72,SSW,202,1.2,1.2,25,0.00,CLR,,0.00,WeatherDisplay:10.37,2013-02-08 00:12:00,
2013-02-07 17:17:00,54.0,18.9,29.72,SW,225,1.2,1.6,25,0.00,CLR,,0.00,WeatherDisplay:10.37,2013-02-08 00:17:00,
2013-02-07 17:22:00,53.6,18.6,29.73,SSE,158,2.3,2.3,25,0.00,CLR,,0.00,WeatherDisplay:10.37,2013-02-08 00:22:00,
2013-02-07 17:27:00,53.1,18.1,29.73,SW,225,1.2,0.0,25,0.00,CLR,,0.00,WeatherDisplay:10.37,2013-02-08 00:27:00,
2013-02-07 17:32:00,52.5,18.6,29.73,SSE,158,2.3,2.3,26,0.00,CLR,,0.00,WeatherDisplay:10.37,2013-02-08 00:32:00,
2013-02-07 17:37:00,52.2,19.1,29.73,SW,225,2.3,2.3,27,0.00,CLR,,0.00,WeatherDisplay:10.37,2013-02-08 00:37:00,
2013-02-07 17:42:00,51.6,18.7,29.73,SSE,158,1.2,1.4,27,0.00,CLR,,0.00,WeatherDisplay:10.37,2013-02-08 00:42:00,
2013-02-07 17:47:00,51.1,18.2,29.73,SSW,202,0.0,0.0,27,0.00,CLR,,0.00,WeatherDisplay:10.37,2013-02-08 00:47:00,
2013-02-07 17:53:00,50.7,17.9,29.73,SSW,202,0.5,0.5,27,0.00,CLR,,0.00,WeatherDisplay:10.37,2013-02-08 00:53:00,
2013-02-07 17:58:00,50.2,17.4,29.73,SSW,202,1.2,1.2,27,0.00,CLR,,0.00,WeatherDisplay:10.37,2013-02-08 00:58:00,
2013-02-07 18:03:00,49.6,17.8,29.73,SSW,202,1.2,1.2,28,0.00,CLR,,0.00,WeatherDisplay:10.37,2013-02-08 01:03:00,
2013-02-07 18:08:00,49.3,17.5,29.73,SE,135,1.2,1.2,28,0.00,CLR,,0.00,WeatherDisplay:10.37,2013-02-08 01:08:00,
2013-02-07 18:13:00,48.7,17.0,29.74,SE,135,0.0,0.0,28,0.00,CLR,,0.00,WeatherDisplay:10.37,2013-02-08 01:13:00,
2013-02-07 18:18:00,48.4,16.7,29.73,SE,135,0.2,0.2,28,0.00,CLR,,0.00,WeatherDisplay:10.37,2013-02-08 01:18:00,
2013-02-07 18:23:00,47.8,17.1,29.73,SE,135,0.0,0.0,29,0.00,CLR,,0.00,WeatherDisplay:10.37,2013-02-08 01:23:00,
2013-02-07 18:28:00,47.5,16.8,29.74,SE,135,0.0,0.0,29,0.00,CLR,,0.00,WeatherDisplay:10.37,2013-02-08 01:28:00,
2013-02-07 18:33:00,47.1,16.4,29.74,SE,135,0.0,0.0,29,0.00,CLR,,0.00,WeatherDisplay:10.37,2013-02-08 01:33:00,
2013-02-07 18:38:00,46.6,16.8,29.74,SE,135,0.0,0.0,30,0.00,CLR,,0.00,WeatherDisplay:10.37,2013-02-08 01:38:00,
2013-02-07 18:43:00,46.0,16.3,29.74,SE,135,0.2,0.2,30,0.00,CLR,,0.00,WeatherDisplay:10.37,2013-02-08 01:43:00,
2013-02-07 18:48:00,45.7,16.0,29.74,ESE,112,1.2,1.2,30,0.00,CLR,,0.00,WeatherDisplay:10.37,2013-02-08 01:48:00,
2013-02-07 18:53:00,45.5,16.6,29.74,ESE,112,0.2,0.2,31,0.00,CLR,,0.00,WeatherDisplay:10.37,2013-02-08 01:53:00,
2013-02-07 18:58:00,45.1,16.3,29.74,ESE,112,1.2,1.2,31,0.00,CLR,,0.00,WeatherDisplay:10.37,2013-02-08 01:58:00,
2013-02-07 19:03:00,45.0,16.1,29.74,ESE,112,0.7,0.7,31,0.00,CLR,,0.00,WeatherDisplay:10.37,2013-02-08 02:03:00,
2013-02-07 19:08:00,44.8,16.7,29.75,East,90,1.2,1.2,32,0.00,CLR,,0.00,WeatherDisplay:10.37,2013-02-08 02:08:00,
2013-02-07 19:13:00,44.6,16.5,29.74,East,90,1.2,1.2,32,0.00,CLR,,0.00,WeatherDisplay:10.37,2013-02-08 02:13:00,
2013-02-07 19:18:00,44.2,16.2,29.74,East,90,1.2,1.2,32,0.00,CLR,,0.00,WeatherDisplay:10.37,2013-02-08 02:18:00,
2013-02-07 19:23:00,44.1,16.0,29.75,East,90,1.2,1.2,32,0.00,CLR,,0.00,WeatherDisplay:10.37,2013-02-08 02:23:00,
2013-02-07 19:28:00,43.9,15.9,29.75,East,90,1.6,1.6,32,0.00,CLR,,0.00,WeatherDisplay:10.37,2013-02-08 02:28:00,
2013-02-07 19:33:00,43.5,16.3,29.75,ENE,68,1.2,1.2,33,0.00,CLR,,0.00,WeatherDisplay:10.37,2013-02-08 02:33:00,
2013-02-07 19:38:00,43.3,16.1,29.75,ESE,112,1.2,1.2,33,0.00,CLR,,0.00,WeatherDisplay:10.37,2013-02-08 02:38:00,
2013-02-07 19:43:00,43.2,15.3,29.75,East,90,1.2,1.2,32,0.00,CLR,,0.00,WeatherDisplay:10.37,2013-02-08 02:43:00,
2013-02-07 19:48:00,42.8,14.9,29.75,ESE,112,2.3,2.3,32,0.00,CLR,,0.00,WeatherDisplay:10.37,2013-02-08 02:48:00,
2013-02-07 19:53:00,42.6,14.8,29.75,East,90,2.3,2.3,32,0.00,CLR,,0.00,WeatherDisplay:10.37,2013-02-08 02:53:00,
2013-02-07 19:58:00,42.4,15.3,29.75,East,90,1.2,1.2,33,0.00,CLR,,0.00,WeatherDisplay:10.37,2013-02-08 02:58:00,
2013-02-07 20:03:00,42.1,15.0,29.75,East,90,1.2,1.2,33,0.00,CLR,,0.00,WeatherDisplay:10.37,2013-02-08 03:03:00,
2013-02-07 20:08:00,42.1,15.0,29.74,East,90,0.0,0.2,33,0.00,CLR,,0.00,WeatherDisplay:10.37,2013-02-08 03:08:00,
2013-02-07 20:13:00,41.7,14.7,29.74,ESE,112,1.2,1.2,33,0.00,CLR,,0.00,WeatherDisplay:10.37,2013-02-08 03:13:00,
2013-02-07 20:18:00,41.5,14.5,29.74,ESE,112,1.2,1.2,33,0.00,CLR,,0.00,WeatherDisplay:10.37,2013-02-08 03:18:00,
2013-02-07 20:23:00,41.4,15.1,29.74,East,90,1.8,1.8,34,0.00,CLR,,0.00,WeatherDisplay:10.37,2013-02-08 03:23:00,
2013-02-07 20:28:00,41.2,14.9,29.74,ENE,68,2.3,2.3,34,0.00,CLR,,0.00,WeatherDisplay:10.37,2013-02-08 03:28:00,
2013-02-07 20:33:00,41.2,15.6,29.74,ENE,68,3.5,3.5,35,0.00,CLR,,0.00,WeatherDisplay:10.37,2013-02-08 03:33:00,
2013-02-07 20:38:00,41.7,16.7,29.75,East,90,5.8,5.8,36,0.00,CLR,,0.00,WeatherDisplay:10.37,2013-02-08 03:38:00,
2013-02-07 20:43:00,42.3,17.8,29.74,ENE,68,4.7,4.7,37,0.00,CLR,,0.00,WeatherDisplay:10.37,2013-02-08 03:43:00,
2013-02-07 20:48:00,43.2,19.2,29.74,NNE,22,5.8,5.8,38,0.00,CLR,,0.00,WeatherDisplay:10.37,2013-02-08 03:48:00,
2013-02-07 20:53:00,43.9,20.5,29.74,NE,45,2.3,2.9,39,0.00,CLR,,0.00,WeatherDisplay:10.37,2013-02-08 03:53:00,
2013-02-07 20:58:00,44.1,20.7,29.74,ESE,112,8.1,8.1,39,0.00,CLR,,0.00,WeatherDisplay:10.37,2013-02-08 03:58:00,
2013-02-07 21:03:00,44.4,21.0,29.74,ESE,112,5.8,5.8,39,0.00,CLR,,0.00,WeatherDisplay:10.37,2013-02-08 04:03:00,
2013-02-07 21:08:00,44.4,21.0,29.74,SSE,158,9.7,9.7,39,0.00,CLR,,0.00,WeatherDisplay:10.37,2013-02-08 04:08:00,
2013-02-07 21:13:00,44.6,21.7,29.74,ESE,112,8.1,8.1,40,0.00,CLR,,0.00,WeatherDisplay:10.37,2013-02-08 04:13:00,
2013-02-07 21:18:00,44.6,21.7,29.74,SE,135,14.3,14.3,40,0.00,CLR,,0.00,WeatherDisplay:10.37,2013-02-08 04:18:00,
2013-02-07 21:23:00,44.8,22.5,29.74,ESE,112,11.5,11.5,41,0.00,CLR,,0.00,WeatherDisplay:10.37,2013-02-08 04:23:00,
2013-02-07 21:28:00,45.0,22.6,29.74,ESE,112,11.8,11.8,41,0.00,CLR,,0.00,WeatherDisplay:10.37,2013-02-08 04:28:00,
2013-02-07 21:33:00,45.0,22.6,29.74,East,90,9.2,9.2,41,0.00,CLR,,0.00,WeatherDisplay:10.37,2013-02-08 04:33:00,
2013-02-07 21:38:00,44.8,22.5,29.74,ESE,112,8.1,8.1,41,0.00,CLR,,0.00,WeatherDisplay:10.37,2013-02-08 04:38:00,
2013-02-07 21:43:00,44.6,22.3,29.74,NE,45,9.2,9.2,41,0.00,CLR,,0.00,WeatherDisplay:10.37,2013-02-08 04:43:00,
2013-02-07 21:48:00,44.6,22.3,29.74,ESE,112,6.9,6.9,41,0.00,CLR,,0.00,WeatherDisplay:10.37,2013-02-08 04:48:00,
2013-02-07 21:53:00,44.4,22.7,29.74,SE,135,9.2,9.2,42,0.00,CLR,,0.00,WeatherDisplay:10.37,2013-02-08 04:53:00,
2013-02-07 21:58:00,44.2,22.6,29.74,East,90,9.2,9.2,42,0.00,CLR,,0.00,WeatherDisplay:10.37,2013-02-08 04:58:00,
2013-02-07 22:00:00,44.2,22.6,29.74,SE,135,9.2,9.2,42,0.00,CLR,,0.00,WeatherDisplay:10.37,2013-02-08 05:00:00,
2013-02-07 22:01:00,44.2,22.6,29.74,SSE,158,8.5,8.5,42,0.00,CLR,,0.00,WeatherDisplay:10.37,2013-02-08 05:01:00,
2013-02-07 22:06:00,44.1,22.4,29.74,ESE,112,8.5,8.5,42,0.00,CLR,,0.00,WeatherDisplay:10.37,2013-02-08 05:06:00,
2013-02-07 22:11:00,44.1,22.4,29.74,East,90,9.2,9.2,42,0.00,CLR,,0.00,WeatherDisplay:10.37,2013-02-08 05:11:00,
2013-02-07 22:16:00,43.9,22.2,29.74,ENE,68,8.1,8.1,42,0.00,CLR,,0.00,WeatherDisplay:10.37,2013-02-08 05:16:00,
2013-02-07 22:21:00,43.9,22.2,29.74,ESE,112,6.9,6.9,42,0.00,CLR,,0.00,WeatherDisplay:10.37,2013-02-08 05:21:00,
2013-02-07 22:26:00,43.9,22.2,29.74,SSE,158,8.1,8.1,42,0.00,CLR,,0.00,WeatherDisplay:10.37,2013-02-08 05:26:00,
2013-02-07 22:31:00,43.9,22.2,29.74,ESE,112,5.8,5.8,42,0.00,CLR,,0.00,WeatherDisplay:10.37,2013-02-08 05:31:00,
2013-02-07 22:36:00,44.1,22.4,29.74,ENE,68,5.8,6.0,42,0.00,CLR,,0.00,WeatherDisplay:10.37,2013-02-08 05:36:00,
2013-02-07 22:41:00,44.1,22.4,29.74,SE,135,8.1,8.1,42,0.00,CLR,,0.00,WeatherDisplay:10.37,2013-02-08 05:41:00,
2013-02-07 22:46:00,43.9,22.2,29.74,SW,225,8.1,8.1,42,0.00,CLR,,0.00,WeatherDisplay:10.37,2013-02-08 05:46:00,
2013-02-07 22:51:00,43.9,22.2,29.74,ESE,112,4.7,4.7,42,0.00,CLR,,0.00,WeatherDisplay:10.37,2013-02-08 05:51:00,
2013-02-07 22:56:00,43.5,21.9,29.74,ESE,112,5.8,5.8,42,0.00,CLR,,0.00,WeatherDisplay:10.37,2013-02-08 05:56:00,
2013-02-07 23:01:00,43.5,21.9,29.74,East,90,5.6,5.6,42,0.00,CLR,,0.00,WeatherDisplay:10.37,2013-02-08 06:01:00,
2013-02-07 23:06:00,43.5,21.9,29.74,East,90,5.8,5.8,42,0.00,CLR,,0.00,WeatherDisplay:10.37,2013-02-08 06:06:00,
2013-02-07 23:11:00,43.7,22.1,29.74,East,90,8.1,8.1,42,0.00,CLR,,0.00,WeatherDisplay:10.37,2013-02-08 06:11:00,
2013-02-07 23:16:00,43.7,22.1,29.74,East,90,5.8,5.8,42,0.00,CLR,,0.00,WeatherDisplay:10.37,2013-02-08 06:16:00,
2013-02-07 23:21:00,43.7,22.1,29.74,East,90,4.6,4.6,42,0.00,CLR,,0.00,WeatherDisplay:10.37,2013-02-08 06:21:00,
2013-02-07 23:26:00,43.5,21.9,29.74,SE,135,5.8,5.8,42,0.00,CLR,,0.00,WeatherDisplay:10.37,2013-02-08 06:26:00,
2013-02-07 23:31:00,43.5,21.9,29.74,ESE,112,5.8,5.8,42,0.00,CLR,,0.00,WeatherDisplay:10.37,2013-02-08 06:31:00,
2013-02-07 23:36:00,43.5,21.9,29.74,ESE,112,8.1,8.1,42,0.00,CLR,,0.00,WeatherDisplay:10.37,2013-02-08 06:36:00,
2013-02-07 23:41:00,43.5,21.9,29.74,NE,45,4.9,4.9,42,0.00,CLR,,0.00,WeatherDisplay:10.37,2013-02-08 06:41:00,
2013-02-07 23:46:00,43.5,21.9,29.74,ESE,112,9.2,9.2,42,0.00,CLR,,0.00,WeatherDisplay:10.37,2013-02-08 06:46:00,
2013-02-07 23:51:00,43.5,21.9,29.74,ESE,112,5.8,5.8,42,0.00,CLR,,0.00,WeatherDisplay:10.37,2013-02-08 06:51:00,
2013-02-07 23:56:00,43.5,21.9,29.74,ESE,112,5.2,5.2,42,0.00,CLR,,0.00,WeatherDisplay:10.37,2013-02-08 06:56:00,